Wind_Speed
28 27 24 24 25 25 25 24 23 24 26 26 26 26 26 25 25 26 25 27 28 28 29 28 28 28 28 26 22 21 23 23
29 29 28 26 26 27 27 27 27 28 27 27 26 26 27 27 27 27 28 27 27 28 29 29 29 29 29 29 26 23 21 23
30 29 28 28 27 27 28 28 28 26 26 26 26 24 23 24 24 25 26 26 28 27 27 29 30 31 30 31 30 26 24 23
28 29 30 28 28 29 30 29 26 24 23 21 21 22 23 25 26 27 28 29 29 30 30 30 29 31 33 32 33 31 27 26
28 30 30 31 30 28 28 25 21 20 20 22 23 23 23 23 24 26 29 32 34 34 34 33 32 31 32 33 33 33 32 29
29 29 29 31 29 26 24 22 22 23 22 22 19 18 19 21 22 24 26 27 29 33 37 38 38 35 34 33 34 34 34 33
29 29 29 28 27 26 24 25 25 24 23 20 19 20 23 24 24 24 27 28 29 29 31 35 40 42 41 38 36 35 36 36
31 29 26 27 27 26 29 28 27 25 24 24 24 25 25 25 27 28 30 31 33 34 37 38 37 40 44 44 41 38 37 38
30 28 26 26 28 29 30 29 29 30 30 31 32 32 31 32 32 33 34 34 35 37 39 40 38 44 46 47 45 43 40 40
30 29 28 30 31 31 32 33 33 34 34 35 37 38 39 39 39 38 38 36 38 40 40 42 44 46 48 48 48 46 44 42
31 33 32 32 32 33 33 34 34 35 37 38 40 40 39 40 40 40 40 39 41 44 43 46 48 51 52 53 53 52 51 48
33 34 33 34 34 35 36 36 37 39 41 42 42 41 41 44 44 44 43 42 43 44 47 49 52 55 57 57 57 58 59 55
33 34 36 36 36 37 38 39 41 44 45 46 46 45 45 46 47 45 45 45 46 45 47 51 55 58 62 62 64 63 65 63
34 36 39 40 40 40 42 42 43 45 46 47 48 48 48 48 49 48 47 46 45 47 49 52 56 64 63 69 60 61 71 69
37 40 43 45 45 44 45 46 46 47 48 48 47 50 51 50 51 51 50 49 45 48 50 54 56 60 62 57 47 43 48 62
41 45 47 48 48 48 49 50 50 50 49 51 51 51 52 53 52 52 52 49 47 49 51 53 55 60 60 53 44 43 44 44
44 46 49 51 51 52 53 54 54 54 54 55 54 53 54 55 53 53 51 51 51 50 50 51 55 58 56 48 41 39 37 46
48 50 51 53 55 55 56 57 58 59 56 55 53 52 54 55 54 53 53 53 52 50 50 51 52 54 53 46 45 45 43 40
51 53 55 57 59 59 60 60 60 59 56 53 53 52 54 54 55 56 56 54 51 50 50 49 49 51 52 46 45 44 46 48
55 57 58 60 61 61 61 61 60 60 58 55 56 54 55 56 56 57 58 54 50 51 50 49 48 49 50 48 46 48 49 51
Wind_Direction
284 283 285 288 287 287 287 289 292 294 296 297 296 297 298 299 300 302 302 302 300 299 300 300 302 301 302 304 302 298 293 289
274 276 280 285 285 286 288 289 288 290 290 291 290 290 294 298 300 302 304 303 299 299 297 295 296 297 298 298 300 296 292 284
273 278 282 284 286 285 285 284 283 282 284 285 288 292 297 300 302 304 303 303 303 300 298 296 294 295 295 295 295 295 290 284
276 278 278 278 278 278 277 276 277 276 278 282 285 290 294 297 299 299 299 300 301 301 300 298 296 292 291 292 291 290 287 282
279 277 275 275 276 274 273 273 273 272 273 278 285 291 294 295 299 302 301 298 297 298 301 301 297 293 291 288 287 285 284 280
277 275 276 276 278 273 270 269 270 273 279 283 288 293 295 301 306 308 311 310 307 299 294 295 298 297 291 287 281 281 278 278
274 274 274 277 276 274 270 272 273 274 279 279 289 292 294 298 300 304 307 309 312 311 306 301 293 292 293 290 283 275 275 274
281 282 282 280 278 277 281 281 279 279 280 280 285 287 285 287 291 301 304 304 306 306 307 303 296 292 289 289 286 280 272 270
286 285 283 277 275 279 281 282 278 278 282 285 287 286 286 286 288 289 291 292 294 297 296 296 295 295 287 281 280 278 276 268
282 284 281 280 281 281 281 283 281 279 285 285 286 290 291 290 289 290 293 293 295 294 293 291 290 286 279 277 278 275 271 270
278 280 281 282 284 284 284 283 283 283 283 285 287 290 291 292 291 289 289 291 295 296 291 291 290 284 280 276 273 274 271 264
276 279 283 287 288 286 286 287 287 286 287 288 288 289 292 294 292 289 288 289 290 291 293 291 288 282 279 272 271 269 268 265
273 278 281 283 281 281 283 285 285 285 286 289 291 293 294 293 293 289 288 286 285 285 288 292 281 284 287 275 270 265 264 263
269 274 276 279 280 280 282 283 285 286 287 288 290 291 290 292 291 287 285 287 286 286 289 292 286 291 294 296 282 267 256 256
268 272 275 278 280 283 285 286 287 286 287 289 289 289 288 290 289 287 287 289 288 286 288 293 295 298 302 295 280 274 260 248
273 274 274 276 279 282 284 285 287 288 288 290 290 289 287 286 286 285 287 288 287 285 291 297 297 301 304 291 280 272 263 255
274 274 275 276 280 281 283 285 285 286 288 288 289 286 284 284 283 284 288 289 289 287 292 297 298 301 306 285 275 268 269 253
278 278 280 280 281 283 283 283 284 286 287 288 287 285 286 287 286 288 289 288 288 286 292 296 298 301 304 288 270 266 267 261
278 280 282 283 284 285 284 284 285 287 288 286 285 286 287 285 285 287 288 288 287 287 291 295 297 300 303 288 274 274 274 271
278 281 281 281 282 283 283 283 285 286 285 283 284 286 284 283 284 285 286 288 286 286 289 292 293 299 301 291 271 275 274 266
Height
5835 5834 5834 5834 5833 5833 5832 5831 5831 5831 5830 5829 5828 5827 5826 5826 5825 5824 5824 5822 5821 5819 5818 5817 5816 5814 5812 5811 5811 5811 5811 5809
5830 5829 5828 5828 5828 5828 5827 5826 5826 5825 5825 5824 5823 5822 5821 5820 5819 5818 5818 5817 5816 5815 5814 5812 5811 5810 5809 5807 5806 5806 5806 5806
5825 5824 5823 5822 5822 5821 5821 5821 5820 5819 5819 5819 5817 5816 5815 5815 5814 5813 5813 5812 5811 5810 5809 5808 5807 5805 5805 5803 5801 5801 5801 5801
5820 5819 5818 5817 5816 5815 5814 5814 5814 5813 5813 5812 5812 5811 5810 5810 5809 5808 5807 5806 5805 5804 5804 5803 5802 5800 5799 5798 5797 5796 5796 5796
5815 5814 5812 5811 5809 5808 5808 5808 5807 5807 5807 5807 5807 5806 5805 5804 5803 5802 5802 5801 5799 5798 5797 5797 5796 5795 5794 5793 5792 5791 5790 5790
5809 5809 5807 5806 5804 5804 5803 5803 5802 5802 5802 5801 5801 5800 5800 5799 5798 5797 5795 5794 5793 5792 5791 5790 5789 5789 5788 5787 5786 5785 5783 5784
5802 5802 5801 5800 5799 5798 5798 5798 5797 5797 5797 5796 5794 5793 5792 5792 5791 5790 5789 5788 5788 5787 5786 5785 5784 5783 5782 5781 5780 5779 5778 5777
5796 5796 5795 5795 5794 5794 5793 5792 5791 5791 5791 5790 5788 5787 5785 5784 5783 5782 5781 5780 5780 5779 5779 5777 5776 5775 5775 5774 5773 5772 5771 5769
5789 5789 5789 5789 5789 5788 5787 5786 5785 5785 5785 5784 5783 5782 5780 5778 5776 5774 5774 5773 5772 5771 5769 5768 5768 5767 5765 5765 5764 5763 5763 5763
5783 5783 5783 5783 5783 5782 5781 5780 5779 5779 5778 5777 5776 5775 5773 5771 5769 5767 5766 5764 5763 5761 5759 5758 5756 5755 5755 5755 5754 5754 5753 5753
5776 5775 5775 5775 5774 5774 5774 5773 5772 5772 5771 5770 5768 5766 5764 5761 5759 5757 5755 5753 5752 5751 5749 5747 5744 5742 5742 5743 5743 5743 5742 5742
5770 5769 5768 5767 5767 5766 5765 5765 5764 5763 5761 5760 5758 5756 5754 5752 5750 5748 5746 5743 5741 5740 5738 5735 5732 5730 5729 5728 5728 5728 5729 5730
5763 5762 5760 5760 5759 5758 5757 5756 5755 5753 5751 5749 5747 5744 5742 5741 5739 5737 5735 5734 5731 5728 5725 5722 5718 5713 5712 5711 5711 5710 5711 5714
5756 5755 5753 5752 5750 5749 5748 5747 5746 5743 5741 5739 5736 5733 5731 5729 5726 5724 5722 5721 5718 5716 5713 5709 5704 5697 5691 5687 5685 5684 5690 5695
5749 5747 5744 5742 5740 5739 5738 5736 5735 5732 5730 5727 5725 5722 5719 5716 5714 5711 5709 5707 5705 5703 5699 5694 5690 5682 5674 5669 5668 5668 5665 5674
5739 5737 5735 5733 5731 5729 5727 5724 5722 5720 5717 5715 5712 5710 5707 5704 5701 5698 5695 5693 5692 5689 5685 5680 5674 5668 5662 5653 5654 5655 5656 5659
5729 5727 5725 5723 5721 5718 5715 5712 5710 5708 5706 5704 5700 5696 5693 5690 5688 5685 5682 5680 5678 5675 5671 5666 5660 5655 5650 5642 5642 5643 5643 5644
5716 5715 5713 5711 5709 5706 5703 5700 5698 5695 5693 5691 5687 5684 5680 5676 5673 5671 5668 5666 5663 5661 5657 5652 5647 5642 5638 5632 5631 5631 5632 5632
5704 5701 5700 5697 5695 5693 5691 5687 5685 5683 5681 5677 5674 5670 5666 5663 5660 5657 5654 5651 5648 5646 5643 5638 5633 5629 5625 5622 5621 5621 5621 5622
5691 5689 5686 5684 5681 5679 5677 5674 5672 5670 5668 5664 5659 5656 5652 5649 5647 5643 5640 5637 5634 5631 5628 5625 5621 5617 5613 5609 5608 5608 5608 5609